World > North America > United States > Mississippi

Hourly Endville, MS Regional Weather

Feedback E-mail the Weather

Quick WX

Endville, MS Weather Maps

°F °C°F °C
Endville Weather Map
UTC Time: 7/1/2022, 13:14
Your Time:

Endville, MS Regional Weather

Expires:202207011400;;494257
ASUS44 KJAN 011310
RWRMS 

MISSISSIPPI HOURLY WEATHER ROUNDUP
NATIONAL WEATHER SERVICE JACKSON MS
800 AM CDT FRI JUL 01 2022

NOTE: "FAIR: INDICATES FEW OR NO CLOUDS BELOW 12,000 FEET WITH NO
SIGNIFICANT WEATHER AND/OR OBSTRUCTIONS TO VISIBILITY.


MSZ001>002-007>008-010>013-018>021-025>028-034>036-011400-
NORTHWEST MISSISSIPPI
  
CITY           SKY/WX    TMP DP  RH WIND       PRES   REMARKS
BATESVILLE     FAIR      75  73  94 CALM      30.09R                  
CLARKSDALE     SUNNY     75  75 100 SE7       30.09S                  
CLEVELAND      FAIR      76  74  94 S5        30.08R                  
GREENWOOD      PTSUNNY   78  73  84 SE3       30.09R                  
GREENVILLE     MOSUNNY   75  73  93 SE3       30.07R                  
OLIVE BRANCH   PTSUNNY   77  73  88 S6        30.08S                  
OXFORD         MOSUNNY   73  72  94 SE3       30.12R                  
TUNICA         SUNNY     77  72  85 S8        30.08S                  
WINONA         FAIR      75  72  91 S3        30.10S                  
$$


SKY/WX - Weather  TMP - Temperature  DP - Dew Point  RH - Humidity
WIND - Wind Direction/Speed PRES - Barometric Pressure VSB - Visibility
WCI - Wind Chill Index E13G22 Wind - East Wind 13 mph/Gusts of 22 mph

Trending Headlines

Endville Radar Loop



Endville Quick Facts


National Two Day Weather Forecast


E-mail the Endville Weather Forecast

Voice your opinion or tell us about page issues...